Home   Weather   Vernier   Past weeks

Flag for Switzerland Past Weather in Vernier, Geneva, Switzerland — Yesterday and Last 2 Weeks

Now
39 °F

Scattered showers. Mostly cloudy.


Feels Like: 37 °F
Forecast: 30 / 48 °F
Wind: 3 mph from Northwest

Location: Geneva Cointrin Airport

Current Time: Apr 27, 2017 at 7:46:05 am

Latest Report: Apr 27, 2017 at 6:50 am


Visibility: N/A

Pressure: 29.92 "Hg

Humidity: 93%

Dew Point: 37 °F

Location of VernierLocation

Past Weather in Vernier — Graph

°F

Vernier Temperature Yesterday

Maximum temperature yesterday: 54 °F (at 2:50 pm)
Minimum temperature yesterday: 41 °F (at 11:20 pm)
Average temperature yesterday: 47 °F

High & Low Weather Summary for the Past Weeks

 TemperatureHumidityPressure
High72 °F (Apr 12, 4:50 pm)100% (Apr 25, 7:50 pm)30.45 "Hg (Apr 25, 7:50 pm)
Low32 °F (Apr 22, 5:20 am)14% (Apr 21, 6:50 pm)29.68 "Hg (Apr 25, 8:50 pm)
Average50 °F58%30.10 "Hg
* Reported Apr 12 6:20 am — Apr 27 6:20 am, Vernier, Weather by CustomWeather, © 2017

Note: Actual official high and low records may vary slightly from our data, if they occured in-between our weather recording intervals... More about our weather records

Advertising

Vernier Weather History for the Previous 24 Hours

Scroll right to see more
 ConditionsComfort  
Time TempWeatherWind HumidityBarometerVisibility
6:20 am
Thu, Apr 27
39 °FMostly cloudy.1 mph93%29.92 "HgN/A
5:50 am39 °FPartly cloudy.1 mph93%29.92 "HgN/A
5:20 am39 °FPassing clouds.2 mph93%29.92 "HgN/A
4:50 am39 °FPassing clouds.3 mph100%29.92 "HgN/A
4:20 am39 °FOvercast.1 mph100%29.92 "HgN/A
3:50 am39 °FPassing clouds.2 mph100%29.92 "HgN/A
3:20 am41 °FPassing clouds.2 mph87%29.92 "HgN/A
2:50 am41 °FPassing clouds.5 mph87%29.92 "HgN/A
2:20 am41 °FPassing clouds.7 mph87%29.92 "HgN/A
1:50 am41 °FLight rain. Passing clouds.9 mph87%29.92 "HgN/A
1:20 am41 °FLight rain. Partly cloudy.10 mph87%29.92 "HgN/A
12:50 am41 °FPartly cloudy.7 mph93%29.92 "HgN/A
12:20 am41 °FLight rain. Partly cloudy.8 mph93%29.92 "HgN/A
11:50 pm
Wed, Apr 26
41 °FLight rain. Partly cloudy.7 mph93%29.92 "HgN/A
11:20 pm41 °FLight rain. Passing clouds.7 mph100%29.92 "HgN/A
10:50 pm43 °FRain. Partly cloudy.1 mph93%29.89 "Hg5 mi
10:20 pm43 °FLight rain. Partly cloudy.5 mph93%29.89 "Hg6 mi
9:50 pm43 °FLight rain. Partly cloudy.5 mph93%29.89 "Hg6 mi
9:20 pm45 °FLight rain. Partly cloudy.6 mph87%29.86 "HgN/A
8:50 pm45 °FLight rain. Partly cloudy.6 mph87%29.86 "HgN/A
8:20 pm45 °FLight rain. Broken clouds.8 mph81%29.86 "HgN/A
7:50 pm45 °FBroken clouds.8 mph87%29.86 "HgN/A
7:20 pm46 °FBroken clouds.10 mph82%29.83 "HgN/A
6:50 pm48 °FBroken clouds.7 mph76%29.83 "HgN/A
6:20 pm50 °FBroken clouds.9 mph67%29.80 "HgN/A
5:50 pm48 °FBroken clouds.14 mph71%29.83 "HgN/A
5:20 pm50 °FBroken clouds.12 mph67%29.80 "HgN/A
4:50 pm50 °FBroken clouds.16 mph67%29.80 "HgN/A
4:20 pm50 °FBroken clouds.13 mph71%29.80 "HgN/A
3:50 pm50 °FBroken clouds.12 mph71%29.80 "HgN/A
3:20 pm50 °FPartly sunny.13 mph71%29.80 "HgN/A
2:50 pm54 °FScattered clouds.16 mph67%29.80 "HgN/A
2:20 pm52 °FScattered clouds.13 mph72%29.80 "HgN/A
1:50 pm50 °FScattered clouds.13 mph76%29.77 "HgN/A
1:20 pm50 °FPartly sunny.13 mph71%29.77 "HgN/A
12:50 pm50 °FPartly sunny.13 mph76%29.77 "HgN/A
12:20 pm48 °FPartly sunny.13 mph82%29.77 "HgN/A
11:50 am46 °FPartly sunny.15 mph87%29.77 "HgN/A
11:20 am48 °FPartly sunny.14 mph82%29.77 "HgN/A
10:50 am46 °FScattered showers. Partly sunny.13 mph87%29.77 "HgN/A
10:20 am46 °FScattered showers. Partly sunny.16 mph87%29.74 "HgN/A
9:50 am46 °FPartly sunny.15 mph87%29.74 "HgN/A
9:20 am46 °FLight rain. Broken clouds.15 mph93%29.74 "HgN/A
8:50 am46 °FLight rain. Broken clouds.14 mph93%29.71 "HgN/A
8:20 am46 °FLight rain. More clouds than sun.8 mph93%29.71 "HgN/A
7:50 am46 °FLight rain. More clouds than sun.9 mph93%29.71 "HgN/A
7:20 am46 °FLight rain. Broken clouds.7 mph93%29.71 "HgN/A
Weather by CustomWeather, © 2017

See weather overviewHow to use our weather pages